| time (UTC) | temp F | wind direction | speed knots | gust knots | rain 1hr in | rain 24hr in | rain mn in | humidity % | barometer mb |
| 20260508210048 | 68 | 1 | 1.7 | 12.2 | 0.00 | 0.00 | 0.00 | 35 | 1016.6 |
| 20260508205047 | 68 | 248 | 6.1 | 12.2 | 0.00 | 0.00 | 0.00 | 34 | 1016.6 |
| 20260508204553 | 68 | 83 | 0.0 | 5.2 | 0.00 | 0.00 | 0.00 | 37 | 1016.8 |
| 20260508204047 | 68 | 249 | 1.7 | 5.2 | 0.00 | 0.00 | 0.00 | 35 | 1016.8 |
| 20260508203550 | 68 | 60 | 1.7 | 4.3 | 0.00 | 0.00 | 0.00 | 36 | 1016.9 |
| 20260508203046 | 68 | 210 | 0.9 | 8.7 | 0.00 | 0.00 | 0.00 | 36 | 1016.7 |
| 20260508202646 | 67 | 304 | 0.9 | 8.7 | 0.00 | 0.00 | 0.00 | 35 | 1016.8 |
| 20260508202048 | 68 | 257 | 1.7 | 12.2 | 0.00 | 0.00 | 0.00 | 35 | 1016.8 |
| 20260508201545 | 68 | 252 | 6.1 | 12.2 | 0.00 | 0.00 | 0.00 | 34 | 1016.9 |
| 20260508201044 | 67 | 252 | 3.5 | 9.6 | 0.00 | 0.00 | 0.00 | 34 | 1017.0 |
| 20260508200546 | 68 | 145 | 4.3 | 7.8 | 0.00 | 0.00 | 0.00 | 35 | 1017.1 |
| 20260508200145 | 67 | 119 | 2.6 | 6.1 | 0.00 | 0.00 | 0.00 | 34 | 1017.0 |
| 20260508195544 | 68 | 162 | 1.7 | 6.1 | 0.00 | 0.00 | 0.00 | 34 | 1017.2 |
| 20260508195044 | 68 | 261 | 2.6 | 6.1 | 0.00 | 0.00 | 0.00 | 32 | 1017.2 |
| 20260508194544 | 68 | 32 | 1.7 | 7.0 | 0.00 | 0.00 | 0.00 | 32 | 1017.3 |
| 20260508194043 | 69 | 124 | 3.5 | 7.0 | 0.00 | 0.00 | 0.00 | 34 | 1017.5 |
| 20260508193105 | 69 | 223 | 0.9 | 9.6 | 0.00 | 0.00 | 0.00 | 30 | 1017.5 |
| 20260508192042 | 69 | 71 | 3.5 | 9.6 | 0.00 | 0.00 | 0.00 | 30 | 1017.6 |
| 20260508191545 | 69 | 99 | 1.7 | 8.7 | 0.00 | 0.00 | 0.00 | 30 | 1017.9 |
| 20260508190542 | 68 | 210 | 2.6 | 6.1 | 0.00 | 0.00 | 0.00 | 33 | 1018.0 |
| 20260508190042 | 67 | 255 | 0.9 | 8.7 | 0.00 | 0.00 | 0.00 | 32 | 1018.1 |
| 20260508185541 | 67 | 323 | 2.6 | 11.3 | 0.00 | 0.00 | 0.00 | 32 | 1018.1 |
| 20260508185043 | 66 | 222 | 4.3 | 11.3 | 0.00 | 0.00 | 0.00 | 32 | 1018.2 |
| 20260508184542 | 67 | 314 | 4.3 | 8.7 | 0.00 | 0.00 | 0.00 | 31 | 1018.3 |
| 20260508184041 | 67 | 300 | 2.6 | 9.6 | 0.00 | 0.00 | 0.00 | 30 | 1018.3 |
| 20260508183541 | 68 | 34 | 1.7 | 9.6 | 0.00 | 0.00 | 0.00 | 29 | 1018.4 |
| 20260508183054 | 68 | 333 | 1.7 | 7.8 | 0.00 | 0.00 | 0.00 | 30 | 1018.5 |
| 20260508182041 | 69 | 323 | 2.6 | 9.6 | 0.00 | 0.00 | 0.00 | 30 | 1018.6 |
| 20260508181552 | 68 | 188 | 2.6 | 5.2 | 0.00 | 0.00 | 0.00 | 30 | 1018.4 |
| 20260508181040 | 68 | 86 | 0.9 | 8.7 | 0.00 | 0.00 | 0.00 | 30 | 1018.6 |
| 20260508180539 | 68 | 60 | 2.6 | 8.7 | 0.00 | 0.00 | 0.00 | 32 | 1018.9 |
| 20260508180041 | 67 | 88 | 2.6 | 6.1 | 0.00 | 0.00 | 0.00 | 30 | 1019.0 |
| 20260508175539 | 68 | 144 | 0.9 | 8.7 | 0.00 | 0.00 | 0.00 | 28 | 1019.0 |
| 20260508175039 | 68 | 56 | 3.5 | 8.7 | 0.00 | 0.00 | 0.00 | 30 | 1019.1 |
| 20260508174538 | 68 | 22 | 1.7 | 5.2 | 0.00 | 0.00 | 0.00 | 35 | 1019.1 |
| 20260508174038 | 66 | 6 | 0.9 | 6.1 | 0.00 | 0.00 | 0.00 | 32 | 1019.1 |
| 20260508173538 | 66 | 226 | 0.9 | 7.8 | 0.00 | 0.00 | 0.00 | 34 | 1019.2 |
| 20260508173037 | 68 | 115 | 0.9 | 9.6 | 0.00 | 0.00 | 0.00 | 32 | 1019.3 |
| 20260508172037 | 67 | 90 | 0.9 | 9.6 | 0.00 | 0.00 | 0.00 | 33 | 1019.4 |
| 20260508171535 | 66 | 90 | 0.9 | 7.0 | 0.00 | 0.00 | 0.00 | 33 | 1019.4 |
| 20260508171038 | 66 | 72 | 2.6 | 7.0 | 0.00 | 0.00 | 0.00 | 35 | 1019.5 |
| 20260508170535 | 66 | 84 | 1.7 | 6.1 | 0.00 | 0.00 | 0.00 | 34 | 1019.6 |
| 20260508170036 | 65 | 236 | 1.7 | 7.8 | 0.00 | 0.00 | 0.00 | 35 | 1019.9 |
| 20260508165534 | 66 | 290 | 1.7 | 7.8 | 0.00 | 0.00 | 0.00 | 35 | 1019.9 |
| 20260508165035 | 66 | 308 | 1.7 | 7.0 | 0.00 | 0.00 | 0.00 | 36 | 1019.9 |
| 20260508164533 | 66 | 66 | 2.6 | 7.0 | 0.00 | 0.00 | 0.00 | 35 | 1020.0 |
| 20260508164033 | 65 | 256 | 1.7 | 7.8 | 0.00 | 0.00 | 0.00 | 36 | 1020.1 |
| 20260508163533 | 65 | 240 | 3.5 | 7.8 | 0.00 | 0.00 | 0.00 | 35 | 1020.0 |
| 20260508163033 | 64 | 89 | 1.7 | 8.7 | 0.00 | 0.00 | 0.00 | 35 | 1020.1 |
| 20260508162135 | 66 | 105 | 0.0 | 4.3 | 0.00 | 0.00 | 0.00 | 36 | 1020.2 |
| 20260508161533 | 64 | 145 | 0.9 | 4.3 | 0.00 | 0.00 | 0.00 | 36 | 1020.3 |
| 20260508161133 | 65 | 76 | 1.7 | 4.3 | 0.00 | 0.00 | 0.00 | 35 | 1020.4 |
| 20260508160533 | 65 | 134 | 0.0 | 7.0 | 0.00 | 0.00 | 0.00 | 34 | 1020.5 |
| 20260508160033 | 64 | 239 | 1.7 | 5.2 | 0.00 | 0.00 | 0.00 | 37 | 1020.6 |
| 20260508155630 | 64 | 312 | 2.6 | 7.0 | 0.00 | 0.00 | 0.00 | 37 | 1020.6 |
| 20260508155031 | 63 | 115 | 1.7 | 7.0 | 0.00 | 0.00 | 0.00 | 38 | 1020.7 |
| 20260508154544 | 64 | 240 | 2.6 | 6.1 | 0.00 | 0.00 | 0.00 | 36 | 1020.7 |
| 20260508154033 | 63 | 70 | 1.7 | 6.1 | 0.00 | 0.00 | 0.00 | 37 | 1020.9 |
| 20260508153530 | 63 | 44 | 3.5 | 7.8 | 0.00 | 0.00 | 0.00 | 37 | 1021.0 |
| 20260508152531 | 64 | 150 | 5.2 | 8.7 | 0.00 | 0.00 | 0.00 | 34 | 1020.9 |
| 20260508152028 | 63 | 63 | 0.9 | 8.7 | 0.00 | 0.00 | 0.00 | 36 | 1020.9 |
| 20260508151533 | 63 | 101 | 3.5 | 8.7 | 0.00 | 0.00 | 0.00 | 35 | 1020.9 |
| 20260508151029 | 64 | 174 | 1.7 | 7.8 | 0.00 | 0.00 | 0.00 | 37 | 1020.8 |
| 20260508150035 | 63 | 151 | 0.9 | 3.5 | 0.00 | 0.00 | 0.00 | 38 | 1020.9 |
| 20260508145027 | 63 | 169 | 1.7 | 4.3 | 0.00 | 0.00 | 0.00 | 38 | 1021.0 |
| 20260508144526 | 63 | 77 | 0.9 | 4.3 | 0.00 | 0.00 | 0.00 | 40 | 1021.1 |
| 20260508144026 | 63 | 122 | 0.9 | 5.2 | 0.00 | 0.00 | 0.00 | 41 | 1021.1 |
| 20260508143525 | 62 | 60 | 0.9 | 5.2 | 0.00 | 0.00 | 0.00 | 43 | 1021.1 |
| 20260508143023 | 62 | 127 | 0.0 | 4.3 | 0.00 | 0.00 | 0.00 | 43 | 1021.0 |
| 20260508142522 | 61 | 36 | 1.7 | 4.3 | 0.00 | 0.00 | 0.00 | 45 | 1021.1 |
| 20260508142021 | 60 | 105 | 0.9 | 4.3 | 0.00 | 0.00 | 0.00 | 42 | 1021.0 |
| 20260508141526 | 60 | 95 | 2.6 | 5.2 | 0.00 | 0.00 | 0.00 | 42 | 1021.1 |
| 20260508141020 | 60 | 108 | 1.7 | 4.3 | 0.00 | 0.00 | 0.00 | 42 | 1021.1 |
| 20260508140523 | 59 | 257 | 0.9 | 4.3 | 0.00 | 0.00 | 0.00 | 43 | 1021.1 |
| 20260508140018 | 59 | 89 | 1.7 | 4.3 | 0.00 | 0.00 | 0.00 | 43 | 1021.1 |
| 20260508135019 | 58 | 226 | 1.7 | 4.3 | 0.00 | 0.00 | 0.00 | 43 | 1021.2 |
| 20260508134517 | 58 | 168 | 0.0 | 3.5 | 0.00 | 0.00 | 0.00 | 42 | 1021.0 |
| 20260508134017 | 57 | 159 | 1.7 | 5.2 | 0.00 | 0.00 | 0.00 | 42 | 1021.2 |
| 20260508133516 | 56 | 95 | 0.9 | 6.1 | 0.00 | 0.00 | 0.00 | 44 | 1021.2 |
| 20260508133019 | 57 | 94 | 3.5 | 6.1 | 0.00 | 0.00 | 0.00 | 41 | 1021.1 |
| 20260508132516 | 57 | 147 | 1.7 | 5.2 | 0.00 | 0.00 | 0.00 | 36 | 1021.2 |
| 20260508132014 | 56 | 80 | 0.0 | 2.6 | 0.00 | 0.00 | 0.00 | 39 | 1021.1 |
| 20260508131514 | 56 | 154 | 0.9 | 2.6 | 0.00 | 0.00 | 0.00 | 40 | 1021.1 |
| 20260508131012 | 56 | 237 | 0.9 | 2.6 | 0.00 | 0.00 | 0.00 | 41 | 1021.1 |
| 20260508130512 | 55 | 135 | 0.0 | 3.5 | 0.00 | 0.00 | 0.00 | 43 | 1021.1 |
| 20260508130013 | 53 | 101 | 0.9 | 2.6 | 0.00 | 0.00 | 0.00 | 48 | 1021.0 |
| 20260508125012 | 52 | 89 | 0.0 | 2.6 | 0.00 | 0.00 | 0.00 | 49 | 1020.9 |
| 20260508124508 | 52 | 252 | 0.0 | 2.6 | 0.00 | 0.00 | 0.00 | 53 | 1020.9 |
| 20260508124006 | 51 | 231 | 0.9 | 2.6 | 0.00 | 0.00 | 0.00 | 53 | 1020.9 |
| 20260508123509 | 51 | 249 | 0.9 | 2.6 | 0.00 | 0.00 | 0.00 | 54 | 1020.9 |
| 20260508123006 | 51 | 150 | 0.0 | 0.0 | 0.00 | 0.00 | 0.00 | 55 | 1020.8 |
| 20260508122506 | 51 | 156 | 0.0 | 0.0 | 0.00 | 0.00 | 0.00 | 56 | 1020.8 |
| 20260508122004 | 50 | 148 | 0.0 | 0.0 | 0.00 | 0.00 | 0.00 | 57 | 1020.8 |
| 20260508121602 | 50 | 148 | 0.0 | 0.0 | 0.00 | 0.00 | 0.00 | 57 | 1020.8 |
| 20260508121002 | 49 | 148 | 0.0 | 0.0 | 0.00 | 0.00 | 0.00 | 57 | 1020.7 |
| 20260508120500 | 48 | 148 | 0.0 | 1.7 | 0.00 | 0.00 | 0.00 | 57 | 1020.7 |
| 20260508120101 | 48 | 153 | 0.0 | 1.7 | 0.00 | 0.00 | 0.00 | 57 | 1020.7 |
| 20260508115058 | 48 | 125 | 0.0 | 0.0 | 0.00 | 0.10 | 0.00 | 57 | 1020.6 |
| 20260508114603 | 47 | 124 | 0.0 | 0.9 | 0.00 | 0.10 | 0.00 | 58 | 1020.5 |
| 20260508114057 | 47 | 125 | 0.0 | 0.9 | 0.00 | 0.10 | 0.00 | 58 | 1020.4 |
| 20260508113557 | 47 | 125 | 0.0 | 0.9 | 0.00 | 0.10 | 0.00 | 58 | 1020.3 |
| 20260508113057 | 46 | 124 | 0.0 | 0.0 | 0.00 | 0.10 | 0.00 | 58 | 1020.3 |
| 20260508112657 | 46 | 125 | 0.0 | 0.0 | 0.00 | 0.10 | 0.00 | 58 | 1020.1 |
| 20260508112057 | 46 | 124 | 0.0 | 0.0 | 0.00 | 0.10 | 0.00 | 58 | 1020.0 |
| 20260508111556 | 44 | 124 | 0.0 | 0.0 | 0.00 | 0.10 | 0.00 | 58 | 1019.9 |
| 20260508111054 | 44 | 124 | 0.0 | 0.0 | 0.00 | 0.10 | 0.00 | 58 | 1019.8 |
| 20260508110553 | 44 | 124 | 0.0 | 0.0 | 0.00 | 0.10 | 0.00 | 58 | 1019.7 |
| 20260508110152 | 44 | 125 | 0.0 | 0.0 | 0.00 | 0.10 | 0.00 | 58 | 1019.7 |
| 20260508105056 | 43 | 125 | 0.0 | 0.0 | 0.00 | 0.10 | 0.00 | 59 | 1019.5 |
| 20260508104554 | 43 | 125 | 0.0 | 0.0 | 0.00 | 0.10 | 0.00 | 59 | 1019.4 |
| 20260508104053 | 43 | 125 | 0.0 | 0.0 | 0.00 | 0.10 | 0.00 | 59 | 1019.3 |
| 20260508103058 | 43 | 125 | 0.0 | 0.0 | 0.00 | 0.10 | 0.00 | 58 | 1019.1 |
| 20260508102550 | 43 | 125 | 0.0 | 0.0 | 0.00 | 0.10 | 0.00 | 58 | 1019.0 |
| 20260508102050 | 44 | 125 | 0.0 | 0.0 | 0.00 | 0.10 | 0.00 | 58 | 1018.9 |
| 20260508101549 | 44 | 125 | 0.0 | 0.0 | 0.00 | 0.10 | 0.00 | 58 | 1018.8 |
| 20260508100548 | 44 | 125 | 0.0 | 0.0 | 0.00 | 0.10 | 0.00 | 58 | 1018.7 |
| 20260508100104 | 44 | 125 | 0.0 | 0.0 | 0.00 | 0.10 | 0.00 | 58 | 1018.6 |
| 20260508095046 | 44 | 125 | 0.0 | 0.0 | 0.00 | 0.10 | 0.00 | 58 | 1018.5 |
| 20260508094549 | 45 | 125 | 0.0 | 0.0 | 0.00 | 0.10 | 0.00 | 58 | 1018.4 |
| 20260508094045 | 45 | 125 | 0.0 | 0.0 | 0.00 | 0.10 | 0.00 | 58 | 1018.5 |
| 20260508093544 | 45 | 125 | 0.0 | 0.0 | 0.00 | 0.10 | 0.00 | 58 | 1018.5 |
| 20260508093043 | 45 | 125 | 0.0 | 0.9 | 0.00 | 0.10 | 0.00 | 58 | 1018.5 |
| 20260508092546 | 45 | 125 | 0.0 | 0.9 | 0.00 | 0.10 | 0.00 | 58 | 1018.5 |
| 20260508092042 | 45 | 125 | 0.0 | 0.0 | 0.00 | 0.10 | 0.00 | 58 | 1018.3 |
| 20260508091546 | 45 | 125 | 0.0 | 0.0 | 0.00 | 0.10 | 0.00 | 57 | 1018.3 |
| 20260508091042 | 45 | 125 | 0.0 | 0.0 | 0.00 | 0.10 | 0.00 | 57 | 1018.3 |
| 20260508090539 | 45 | 125 | 0.0 | 0.0 | 0.00 | 0.10 | 0.00 | 57 | 1018.3 |
| 20260508090103 | 45 | 125 | 0.0 | 0.0 | 0.00 | 0.10 | 0.00 | 57 | 1018.2 |
| 20260508085539 | 46 | 138 | 0.0 | 0.0 | 0.00 | 0.11 | 0.00 | 57 | 1018.2 |
| 20260508085038 | 46 | 138 | 0.0 | 0.9 | 0.00 | 0.11 | 0.00 | 57 | 1018.1 |
| 20260508084544 | 46 | 138 | 0.0 | 0.9 | 0.00 | 0.11 | 0.00 | 57 | 1018.1 |
| 20260508084039 | 46 | 107 | 0.0 | 0.9 | 0.00 | 0.11 | 0.00 | 57 | 1018.0 |
| 20260508083537 | 46 | 107 | 0.0 | 0.9 | 0.00 | 0.11 | 0.00 | 57 | 1017.9 |
| 20260508083038 | 46 | 109 | 0.0 | 0.0 | 0.00 | 0.11 | 0.00 | 57 | 1017.9 |
| 20260508082040 | 45 | 109 | 0.0 | 0.9 | 0.00 | 0.11 | 0.00 | 57 | 1018.0 |
| 20260508081548 | 45 | 109 | 0.0 | 0.0 | 0.00 | 0.11 | 0.00 | 56 | 1017.8 |
| 20260508081036 | 45 | 109 | 0.0 | 0.0 | 0.00 | 0.11 | 0.00 | 56 | 1017.8 |
| 20260508080537 | 45 | 109 | 0.0 | 0.9 | 0.00 | 0.11 | 0.00 | 56 | 1017.8 |
| 20260508080039 | 45 | 109 | 0.0 | 0.9 | 0.00 | 0.11 | 0.00 | 56 | 1017.9 |
| 20260508075540 | 45 | 109 | 0.0 | 0.9 | 0.00 | 0.11 | 0.00 | 56 | 1017.7 |
| 20260508075034 | 45 | 109 | 0.0 | 1.7 | 0.00 | 0.11 | 0.00 | 56 | 1017.7 |
| 20260508074534 | 45 | 120 | 0.0 | 1.7 | 0.00 | 0.11 | 0.00 | 55 | 1017.6 |
| 20260508074035 | 45 | 117 | 0.0 | 1.7 | 0.00 | 0.11 | 0.00 | 55 | 1017.6 |
| 20260508073535 | 45 | 100 | 0.0 | 1.7 | 0.00 | 0.11 | 0.00 | 55 | 1017.5 |
| 20260508073037 | 45 | 103 | 0.0 | 0.9 | 0.00 | 0.11 | 0.00 | 54 | 1017.4 |
| 20260508072134 | 46 | 104 | 0.0 | 0.9 | 0.00 | 0.11 | 0.00 | 53 | 1017.5 |
| 20260508071533 | 46 | 103 | 0.0 | 0.9 | 0.00 | 0.11 | 0.00 | 53 | 1017.5 |
| 20260508071032 | 46 | 103 | 0.0 | 0.0 | 0.00 | 0.11 | 0.00 | 53 | 1017.6 |
| 20260508070532 | 46 | 103 | 0.0 | 0.9 | 0.00 | 0.11 | 0.00 | 52 | 1017.4 |
| 20260508070031 | 46 | 103 | 0.0 | 0.9 | 0.00 | 0.11 | 0.00 | 53 | 1017.3 |
| 20260508065631 | 46 | 103 | 0.0 | 0.0 | 0.00 | 0.11 | 0.00 | 52 | 1017.3 |
| 20260508065033 | 47 | 103 | 0.0 | 0.9 | 0.00 | 0.11 | 0.00 | 52 | 1017.3 |
| 20260508064531 | 47 | 103 | 0.0 | 0.9 | 0.00 | 0.11 | 0.00 | 52 | 1017.3 |
| 20260508064032 | 47 | 103 | 0.0 | 0.9 | 0.00 | 0.11 | 0.00 | 52 | 1017.2 |
| 20260508063528 | 47 | 90 | 0.0 | 2.6 | 0.00 | 0.11 | 0.00 | 52 | 1017.2 |
| 20260508062028 | 47 | 127 | 0.0 | 3.5 | 0.00 | 0.11 | 0.00 | 52 | 1017.2 |
| 20260508061533 | 47 | 144 | 0.9 | 3.5 | 0.00 | 0.11 | 0.00 | 53 | 1017.1 |
| 20260508061027 | 47 | 98 | 0.0 | 2.6 | 0.00 | 0.11 | 0.00 | 53 | 1017.0 |
| 20260508060027 | 47 | 105 | 0.0 | 0.9 | 0.00 | 0.11 | 0.00 | 53 | 1016.9 |
| 20260508055526 | 47 | 104 | 0.0 | 1.7 | 0.00 | 0.16 | 0.00 | 52 | 1017.0 |
| 20260508055026 | 47 | 109 | 0.0 | 1.7 | 0.00 | 0.16 | 0.00 | 53 | 1017.0 |
| 20260508054533 | 47 | 103 | 0.0 | 1.7 | 0.00 | 0.16 | 0.00 | 52 | 1016.9 |
| 20260508054025 | 47 | 106 | 0.0 | 1.7 | 0.00 | 0.16 | 0.00 | 51 | 1017.0 |
| 20260508053525 | 47 | 101 | 0.0 | 0.9 | 0.00 | 0.16 | 0.00 | 50 | 1016.9 |
| 20260508053032 | 47 | 101 | 0.0 | 0.9 | 0.00 | 0.16 | 0.00 | 48 | 1017.0 |
| 20260508052026 | 47 | 101 | 0.0 | 0.9 | 0.00 | 0.16 | 0.00 | 48 | 1016.8 |
| 20260508051522 | 47 | 101 | 0.0 | 0.9 | 0.00 | 0.16 | 0.00 | 48 | 1016.9 |
| 20260508051028 | 47 | 101 | 0.0 | 0.9 | 0.00 | 0.16 | 0.00 | 47 | 1016.9 |
| 20260508050521 | 47 | 101 | 0.0 | 0.9 | 0.00 | 0.16 | 0.00 | 48 | 1016.8 |
| 20260508050020 | 48 | 101 | 0.0 | 0.9 | 0.00 | 0.16 | 0.00 | 47 | 1016.8 |
| 20260508045519 | 48 | 101 | 0.0 | 0.9 | 0.00 | 0.21 | 0.00 | 48 | 1016.7 |
| 20260508045019 | 48 | 101 | 0.0 | 0.9 | 0.00 | 0.21 | 0.00 | 48 | 1016.6 |
| 20260508044519 | 48 | 101 | 0.0 | 0.0 | 0.00 | 0.21 | 0.00 | 49 | 1016.5 |
| 20260508044020 | 48 | 101 | 0.0 | 0.0 | 0.00 | 0.21 | 0.00 | 50 | 1016.5 |
| 20260508043517 | 48 | 101 | 0.0 | 2.6 | 0.00 | 0.21 | 0.00 | 50 | 1016.4 |
| 20260508043019 | 48 | 101 | 0.0 | 2.6 | 0.00 | 0.21 | 0.00 | 50 | 1016.5 |
| 20260508042053 | 48 | 102 | 0.0 | 0.9 | 0.00 | 0.21 | 0.00 | 50 | 1016.4 |
| 20260508041554 | 48 | 101 | 0.0 | 0.9 | 0.00 | 0.21 | 0.00 | 50 | 1016.4 |
| 20260508041053 | 48 | 104 | 0.0 | 0.9 | 0.00 | 0.21 | 0.00 | 51 | 1016.3 |
| 20260508040552 | 48 | 105 | 0.0 | 0.9 | 0.00 | 0.21 | 0.00 | 51 | 1016.4 |
| 20260508040150 | 49 | 105 | 0.0 | 0.9 | 0.00 | 0.21 | 0.00 | 52 | 1016.4 |
| 20260508035551 | 49 | 105 | 0.0 | 0.9 | 0.00 | 0.21 | 0.21 | 52 | 1016.4 |
| 20260508034545 | 49 | 114 | 0.0 | 1.7 | 0.00 | 0.21 | 0.21 | 54 | 1016.5 |
| 20260508034035 | 49 | 95 | 0.0 | 0.9 | 0.00 | 0.21 | 0.21 | 54 | 1016.5 |
| 20260508033034 | 49 | 96 | 0.0 | 0.0 | 0.00 | 0.21 | 0.21 | 56 | 1016.4 |
| 20260508032534 | 49 | 96 | 0.0 | 0.0 | 0.00 | 0.21 | 0.21 | 57 | 1016.4 |
| 20260508032033 | 50 | 95 | 0.0 | 0.0 | 0.00 | 0.21 | 0.21 | 56 | 1016.4 |
| 20260508031537 | 50 | 95 | 0.0 | 0.9 | 0.00 | 0.21 | 0.21 | 57 | 1016.4 |
| 20260508031034 | 50 | 96 | 0.0 | 0.9 | 0.00 | 0.21 | 0.21 | 57 | 1016.3 |
| 20260508030532 | 50 | 94 | 0.0 | 0.9 | 0.00 | 0.21 | 0.21 | 57 | 1016.4 |
| 20260508030031 | 50 | 94 | 0.0 | 1.7 | 0.00 | 0.21 | 0.21 | 58 | 1016.2 |
| 20260508025528 | 50 | 101 | 0.0 | 0.9 | 0.00 | 0.22 | 0.21 | 59 | 1016.1 |
| 20260508024551 | 51 | 104 | 0.0 | 0.9 | 0.00 | 0.22 | 0.21 | 59 | 1016.2 |
| 20260508024028 | 51 | 104 | 0.0 | 0.9 | 0.00 | 0.22 | 0.21 | 58 | 1015.9 |
| 20260508023528 | 52 | 104 | 0.0 | 0.9 | 0.00 | 0.22 | 0.21 | 58 | 1015.9 |
| 20260508023026 | 52 | 104 | 0.0 | 0.9 | 0.00 | 0.22 | 0.21 | 58 | 1015.8 |
| 20260508022528 | 52 | 104 | 0.0 | 0.9 | 0.00 | 0.22 | 0.21 | 57 | 1015.8 |
| 20260508022025 | 52 | 103 | 0.0 | 1.7 | 0.00 | 0.22 | 0.21 | 57 | 1015.8 |
| 20260508021524 | 52 | 73 | 0.0 | 1.7 | 0.00 | 0.22 | 0.21 | 57 | 1015.6 |
| 20260508021023 | 52 | 73 | 0.0 | 1.7 | 0.00 | 0.22 | 0.21 | 57 | 1015.6 |
| 20260508020523 | 52 | 72 | 0.0 | 0.9 | 0.00 | 0.22 | 0.21 | 56 | 1015.7 |
| 20260508020023 | 52 | 72 | 0.0 | 1.7 | 0.00 | 0.22 | 0.21 | 56 | 1015.6 |
| 20260508015522 | 53 | 72 | 0.0 | 1.7 | 0.00 | 0.25 | 0.21 | 56 | 1015.5 |
| 20260508014524 | 53 | 83 | 0.0 | 0.9 | 0.00 | 0.25 | 0.21 | 56 | 1015.3 |
| 20260508014021 | 53 | 83 | 0.0 | 0.9 | 0.00 | 0.25 | 0.21 | 55 | 1015.3 |
| 20260508013523 | 54 | 83 | 0.0 | 0.9 | 0.00 | 0.25 | 0.21 | 55 | 1015.0 |
| 20260508013018 | 54 | 83 | 0.0 | 0.9 | 0.00 | 0.25 | 0.21 | 54 | 1014.9 |
| 20260508012517 | 55 | 67 | 0.0 | 0.9 | 0.00 | 0.25 | 0.21 | 52 | 1014.8 |
| 20260508012017 | 55 | 67 | 0.0 | 0.9 | 0.00 | 0.25 | 0.21 | 51 | 1014.8 |
| 20260508011515 | 56 | 67 | 0.0 | 0.9 | 0.00 | 0.25 | 0.21 | 52 | 1014.8 |
| 20260508011015 | 56 | 67 | 0.0 | 1.7 | 0.00 | 0.25 | 0.21 | 50 | 1014.7 |
| 20260508010514 | 57 | 67 | 0.0 | 4.3 | 0.00 | 0.25 | 0.21 | 49 | 1014.6 |
| 20260508010012 | 57 | 90 | 0.0 | 3.5 | 0.00 | 0.25 | 0.21 | 47 | 1014.5 |
| 20260508005511 | 58 | 132 | 1.7 | 6.1 | 0.00 | 0.38 | 0.21 | 46 | 1014.5 |
| 20260508004613 | 58 | 108 | 0.0 | 10.4 | 0.00 | 0.38 | 0.21 | 46 | 1014.4 |
| 20260508004013 | 58 | 143 | 2.6 | 10.4 | 0.00 | 0.38 | 0.21 | 46 | 1014.3 |
| 20260508003512 | 58 | 82 | 3.5 | 10.4 | 0.00 | 0.38 | 0.21 | 46 | 1014.3 |
| 20260508003012 | 58 | 158 | 4.3 | 10.4 | 0.00 | 0.38 | 0.21 | 47 | 1014.0 |
| 20260508002512 | 58 | 110 | 4.3 | 9.6 | 0.00 | 0.38 | 0.21 | 46 | 1014.0 |
| 20260508002111 | 58 | 127 | 0.9 | 6.1 | 0.00 | 0.38 | 0.21 | 47 | 1013.9 |
| 20260508001527 | 58 | 72 | 0.9 | 7.8 | 0.00 | 0.38 | 0.21 | 47 | 1014.0 |
| 20260508001010 | 58 | 98 | 1.7 | 5.2 | 0.00 | 0.38 | 0.21 | 47 | 1014.0 |
| 20260508000509 | 58 | 103 | 0.0 | 4.3 | 0.00 | 0.38 | 0.21 | 47 | 1013.8 |
| 20260508000009 | 58 | 158 | 0.9 | 7.8 | 0.00 | 0.38 | 0.21 | 47 | 1013.6 |
| 20260507234510 | 59 | 163 | 2.6 | 12.2 | 0.00 | 0.46 | 0.21 | 47 | 1013.6 |
| 20260507234009 | 59 | 89 | 4.3 | 17.4 | 0.00 | 0.46 | 0.21 | 47 | 1013.7 |
| 20260507233513 | 60 | 81 | 1.7 | 9.6 | 0.00 | 0.46 | 0.21 | 46 | 1013.5 |
| 20260507232508 | 60 | 130 | 3.5 | 12.2 | 0.00 | 0.46 | 0.21 | 47 | 1013.4 |
| 20260507232007 | 60 | 158 | 2.6 | 12.2 | 0.00 | 0.46 | 0.21 | 47 | 1013.4 |
| 20260507231506 | 60 | 103 | 5.2 | 13.0 | 0.00 | 0.46 | 0.21 | 48 | 1013.4 |
| 20260507231005 | 60 | 102 | 4.3 | 15.6 | 0.00 | 0.46 | 0.21 | 48 | 1013.3 |
| 20260507230505 | 61 | 99 | 5.2 | 16.5 | 0.00 | 0.46 | 0.21 | 48 | 1013.2 |
| 20260507230005 | 60 | 127 | 6.1 | 17.4 | 0.00 | 0.47 | 0.21 | 48 | 1013.2 |
| 20260507225505 | 61 | 163 | 7.0 | 20.0 | 0.00 | 0.47 | 0.21 | 47 | 1013.1 |
| 20260507224600 | 61 | 174 | 8.7 | 20.0 | 0.00 | 0.47 | 0.21 | 47 | 1012.9 |
| 20260507224101 | 61 | 101 | 7.0 | 17.4 | 0.00 | 0.47 | 0.21 | 47 | 1012.8 |
| 20260507223558 | 61 | 108 | 5.2 | 16.5 | 0.00 | 0.47 | 0.21 | 48 | 1012.7 |
| 20260507223059 | 61 | 97 | 9.6 | 16.5 | 0.00 | 0.47 | 0.21 | 47 | 1012.6 |
| 20260507222558 | 61 | 97 | 7.8 | 16.5 | 0.00 | 0.47 | 0.21 | 48 | 1012.5 |
| 20260507222102 | 62 | 105 | 6.1 | 17.4 | 0.00 | 0.47 | 0.21 | 48 | 1012.4 |
| 20260507221557 | 62 | 150 | 8.7 | 17.4 | 0.00 | 0.47 | 0.21 | 47 | 1012.1 |
| 20260507221056 | 62 | 158 | 8.7 | 18.2 | 0.00 | 0.47 | 0.21 | 48 | 1012.0 |
| 20260507220558 | 63 | 168 | 7.0 | 18.2 | 0.00 | 0.47 | 0.21 | 47 | 1012.0 |
| 20260507220058 | 63 | 120 | 8.7 | 20.0 | 0.00 | 0.47 | 0.21 | 47 | 1012.0 |
| 20260507215556 | 64 | 94 | 11.3 | 20.9 | 0.00 | 0.47 | 0.21 | 46 | 1011.7 |
| 20260507215054 | 65 | 119 | 6.1 | 20.9 | 0.00 | 0.47 | 0.21 | 47 | 1011.7 |
| 20260507214555 | 66 | 106 | 10.4 | 20.0 | 0.00 | 0.47 | 0.21 | 45 | 1011.4 |
| 20260507214054 | 66 | 77 | 6.1 | 20.0 | 0.00 | 0.47 | 0.21 | 46 | 1011.4 |
| 20260507213554 | 67 | 99 | 7.8 | 13.9 | 0.00 | 0.47 | 0.21 | 44 | 1011.3 |
| 20260507213053 | 68 | 144 | 6.1 | 12.2 | 0.00 | 0.47 | 0.21 | 44 | 1011.3 |
| 20260507212555 | 68 | 117 | 1.7 | 7.8 | 0.00 | 0.47 | 0.21 | 45 | 1011.2 |
| 20260507211601 | 68 | 215 | 5.2 | 9.6 | 0.00 | 0.47 | 0.21 | 44 | 1011.1 |
| 20260507211052 | 68 | 80 | 1.7 | 15.6 | 0.00 | 0.47 | 0.21 | 46 | 1010.9 |
| 20260507210555 | 68 | 169 | 7.0 | 16.5 | 0.00 | 0.47 | 0.21 | 45 | 1010.9 |